Regional Weather Roundup
Issued by NWS

Home | Current Version | Previous Version | Graphics & Text | Print | Product List | Glossary On
Versions: 1 2 3 4 5 6 7 8 9 10 11 12 13 14 15 16 17 18 19 20 21 22 23 24 25 26 27 28 29 30 31 32 33 34 35 36
000
ASUS45 KSLC 220910
RWRUT

UTAH REGIONAL WEATHER ROUNDUP
NATIONAL WEATHER SERVICE SALT LAKE CITY UT
300 AM MDT WED OCT 22 2014

UTZ001>011-023>025-221000-

NORTHERN UTAH

CITY           SKY/WX    TMP DP  RH WIND       PRES   REMARKS
BRIGHAM CITY   CLEAR     40  30  69 CALM      30.13R
HILL AFB       CLEAR     41  30  63 E9        30.12R
LOGAN          CLEAR     32  28  85 CALM      30.15R
OGDEN          CLEAR     40  34  79 N5        30.11R
PROVO AIRPORT  CLEAR     41  32  70 SE8       30.12R
SALT LAKE CITY PTCLDY    43  35  73 NE3       30.11R
VERNAL         CLEAR     44  37  76 W3        30.09R
WENDOVER       PTCLDY    41  28  60 CALM      30.13R
HEBER CITY     CLEAR     32  27  80 SE5       30.14R WCI  27
WEST JORDAN    CLEAR     39  34  81 S3        30.13R

$$

UTZ012>022-026-027-221000-

SOUTHERN/CENTRAL UTAH

CITY           SKY/WX    TMP DP  RH WIND       PRES   REMARKS
BLANDING       CLEAR     49  40  72 NE5       30.16R
BRYCE CANYON   MOCLDY    33  30  88 W6        30.18R WCI  28
CEDAR CITY     PTCLDY    45  28  51 CALM      30.10R
DELTA          CLEAR     42  22  44 N6        30.10S
HANKSVILLE       N/A     50  34  53 W3        30.03R
MILFORD        PTCLDY    40  27  59 CALM      30.10R
MOAB/CYNLANDS  CLEAR     54  42  64 E10       30.00R
PRICE          CLEAR     43  37  79 NE5       30.07R
ST GEORGE      SUNNY     61  34  36 S5        29.98R
KANAB            N/A     45  36  70 NE5       30.11

$$

REGIONAL REPORTS     COLORADO/ARIZONA

CITY           SKY/WX    TMP DP  RH WIND       PRES   REMARKS
CRAIG, CO      CLOUDY    43  39  86 SE5       30.13R
GRAND JUNCTION MOCLDY    48  43  82 CALM      30.05R
RIFLE          LGT RAIN  47  44  90 NE5       30.14R
MONTROSE       CLOUDY    47  41  80 SE10      30.12R
CORTEZ         CLEAR     41  38  89 CALM      30.11S
PAGE, AZ       CLEAR     58  38  47 CALM      30.01R
GRAND CANYON   PTCLDY    35  28  75 CALM      30.16S
KINGMAN        CLEAR     56  39  53 S3        29.98S
FLAGSTAFF      PTCLDY    38  34  85 CALM      30.18S

$$

REGIONAL REPORTS    NEVADA/IDAHO/WYOMING

CITY           SKY/WX    TMP DP  RH WIND       PRES   REMARKS
LAS VEGAS, NV  PTCLDY    66  24  20 S9        29.86R
ELY            PTCLDY    30  10  43 S6        30.15R WCI  24
ELKO           MOCLDY    32  17  54 E3        30.13R
POCATELLO, ID  CLEAR     33  29  85 CALM      30.13R
BURLEY         CLEAR     36  29  75 SW5       30.11R WCI  32
EVANSTON, WY   CLEAR     36  24  62 S3        30.15R
ROCK SPRINGS   CLEAR     34  27  75 W9        30.14R WCI  27

$$



USA.gov is the U.S. government's official web portal to all federal, state and local government web resources and services.